Regional Weather Roundup
Issued by NWS Newport/Morehead, NC

Current Version | Previous Version | Text Only | Print | Product List | Glossary Off
Versions: 1 2 3 4 5 6 7 8 9 10 11 12 13 14 15 16 17 18 19 20 21 22 23 24 25 26 27 28 29 30 31 32 33 34 35 36 37 38 39 40 41 42 43 44 45 46 47 48 49 50
000 ASUS42 KMHX 260310 RWRMHX WEATHER ROUNDUP FOR EASTERN NORTH CAROLINA NATIONAL WEATHER SERVICE NEWPORT/MOREHEAD CITY NC 1000 PM EST SUN JAN 25 2015 NOTE: "FAIR" INDICATES FEW OR NO CLOUDS BELOW 12,000 FEET WITH NO SIGNIFICANT WEATHER AND/OR OBSTRUCTIONS TO VISIBILITY NCZ015>017-031-032-045>047-102-103-260400- NORTH COAST CITY SKY/WX TMP DP RH WIND PRES REMARKS EDENTON CLEAR 40 36 84 S5 29.89F ELIZABETH CITY CLEAR 40 33 76 SE3 29.89F KITTY HAWK CLEAR 41 35 81 CALM 29.89F MANTEO CLEAR 36 34 93 CALM 29.91F $$ NCZ045>047-081-094-103-104-260400- CENTRAL COAST CITY SKY/WX TMP DP RH WIND PRES REMARKS FRISCO CLEAR 52 41 66 W6 29.89F SWANQUARTER NOT AVBL $$ NCZ095-097-098-100-101-260400- SOUTHERN COAST CITY SKY/WX TMP DP RH WIND PRES REMARKS BEAUFORT CLEAR 39 37 92 CALM 29.88F CEDAR ISLAND NOT AVBL JACKSONVILLE CLEAR 38 36 92 CALM 29.86F PINEY ISLAND N/A N/A N/A N/A MISG 29.87F WILMINGTON CLEAR 38 36 92 E3 29.85F $$ NCZ011>013-027>030-043-044-078>080-089-090>093-098-260400- COASTAL PLAIN CITY SKY/WX TMP DP RH WIND PRES REMARKS AHOSKIE PTCLDY 37 33 84 CALM 29.88S CLINTON CLEAR 39 36 90 CALM 29.85F ELIZABETHTOWN CLEAR 40 34 80 CALM 29.86S GOLDSBORO CLEAR 37 36 98 SE2 29.84F GREENVILLE CLEAR 37 34 87 CALM 29.90S HAVELOCK CLEAR 37 34 89 CALM 29.88F KENANSVILLE CLEAR 35 34 96 CALM 29.87S KINSTON CLEAR 37 35 92 CALM 29.87F NEW BERN CLEAR 37 32 82 CALM 29.89S RICHLANDS CLEAR 36 30 80 CALM 29.87F ROCKY MOUNT PTCLDY 41 35 79 S5 29.86S WASHINGTON CLEAR 36 33 88 SE3 29.88F WHITEVILLE CLEAR 38 36 91 CALM 29.86S $$ AMZ130-135-150-152-154-156-158-170-250-252-270-ANZ085-086-088-633-658-670-260400- MARINE OBSERVATIONS STATION/POSITION TIME TEMP WIND PRES WAVE SWELL AIR SEA DIR/SP/G HT/PER HT/PER (UTC) (F) (DEG/KT/KT) (MB) (FT/S) (FT/S) CHESAPEAKE LIGHT 0200 45 180/ 16/ 17 1013.1 64 E VA BEACH 0300 50 52 200/ 12/ 14 1012.6 3/10 3/10 DUCK 0300 43 44 150/ 5/ 6 1011.7 2 E DUCK 0300 43 N/A 2/10 2/11 10 NE DUCK 0300 45 N/A 3/ 9 2/12 OREGON INLET 0300 42 46 310/ 1/ 1 1012.8 13E OREGON INLT 0300 45 N/A 3/ 9 2/11 HATTERAS CG 0300 51 53 250/ 4/ 5 1012.5 DIAMOND BUOY 0300 57 69 200/ 14/ 17 1012.0 3/ 8 3/ 8 17 S OCRACOKE NOT AVBL CAPE LOOKOUT 0200 52 180/ 4/ 4 1011.9 BEAUFORT LAB 0300 47 51 CALM / 1 1010.5 27 SE WRIGHTSVLE NOT AVBL 5 SE WRIGHTSVLE 0200 53 51 180/ 8/ 8 1011.4 225 S CAPE HAT 0156 66 72 240/ 14/ 19 1014.2 6/ 8 5/ 8 41 SE CHARLESTON 0300 62 69 220/ 21/ 25 1010.8 4/ 5 2/ 9 $$

USA.gov is the U.S. government's official web portal to all federal, state and local government web resources and services.